Regional Weather Roundup
Issued by NWS Green Bay, WI

Home | Current Version | Previous Version | Graphics & Text | Print | Product List | Glossary Off
Versions: 1 2 3 4 5 6 7 8 9 10 11 12 13 14 15 16 17 18 19 20 21 22 23 24 25 26 27 28 29 30 31 32 33 34 35 36 37 38 39 40 41 42 43 44 45 46 47 48 49 50

000
ASUS43 KGRB 292359
RWRGRB

NORTH-CENTRAL AND NORTHEAST WISCONSIN REGIONAL WEATHER ROUNDUP
NATIONAL WEATHER SERVICE GREEN BAY WI
700 PM CDT FRI AUG 29 2014

WIZ005-009-010>012-018-019-300100-
NORTH CENTRAL WISCONSIN

CITY           SKY/WX    TMP DP  RH WIND       PRES   REMARKS
IRONWOOD       NOT AVBL
MANITOWISH WTR NOT AVBL
ARBOR VITAE    NOT AVBL
EAGLE RIVER    NOT AVBL
LAND O LAKES   NOT AVBL
RHINELANDER    MOCLDY    68  66  93 N5        29.84F FOG
PHILLIPS       NOT AVBL
ANTIGO         NOT AVBL
TOMAHAWK       NOT AVBL
MERRILL        NOT AVBL
$$

WIZ013-073-300100-
NORTHEAST WISCONSIN

CITY           SKY/WX    TMP DP  RH WIND       PRES   REMARKS
IRON MOUNTAIN  CLOUDY    70  67  90 CALM      29.82S FOG
MARINETTE      PTCLDY    72  66  83 S6        29.81S
$$

WIZ017-030-035>037-045-300100-
CENTRAL WISCONSIN

CITY           SKY/WX    TMP DP  RH WIND       PRES   REMARKS
MEDFORD        NOT AVBL
WAUSAU         LGT RAIN  76  71  85 W10       29.78F
MOSINEE        MOCLDY    72  64  78 W14G29    29.81S
MARSHFIELD     PTCLDY    74  65  73 E5        29.79S
WISC RAPIDS    PTCLDY    80  71  74 S6        29.80F
STEVENS POINT  NOT AVBL
WAUPACA        NOT AVBL
SHAWANO        NOT AVBL
CLINTONVILLE   NOT AVBL
$$

WIZ038-039-048-051-300100-
FOX VALLEY

CITY           SKY/WX    TMP DP  RH WIND       PRES   REMARKS
NWS GREEN BAY  PTCLDY    78  72  81 SE13      29.81F
APPLETON       MOCLDY    81  68  65 S10       29.82F
OSHKOSH        CLOUDY    79  70  74 S13       29.81S
FOND DU LAC    CLOUDY    80  70  71 S10       29.83S
$$

WIZ022-050-052-300100-
EAST CENTRAL WISCONSIN

CITY           SKY/WX    TMP DP  RH WIND       PRES   REMARKS
STURGEON BAY   MOCLDY    70  64  83 S20G26    29.84S
MANITOWOC      NOT AVBL
SHEBOYGAN      CLOUDY    73  69  87 S12       29.86S
$$

LMZ563-521-522-541>543-300100-
LAKESHORE

STATION/POSITION TIME  TEMP    WIND        PRES    VSBY  WAVE
                       AIR SEA DIR/SP/G                  HT/PER
                 (UTC) (F)     (DEG/KT/KT) (MB)    (MI)  (FT/S)
SHEBOYGAN LKSHOR 2300   69 68  180/ 18/ 18 1011.3R
KEWAUNEE LKSHORE 2300   67     180/ 13/ 17 1010.2F
NORTHPORT PIER   2300   69     170/  8/ 18 1010.2F
N MID LAKE BUOY  2300   68 65  190/ 14/ 16 1010.4F         3/ 6
SISTER BAY LKSHO 2300   71     180/ 24/ 30   N/A
CHAMBERS ISLAND  2300   71     150/  6/ 15 1010.2S
MENOMINEE LKSHOR 2300   71     160/ 13/ 17 1010.3F
$$


USA.gov is the U.S. government's official web portal to all federal, state and local government web resources and services.